User: anonymous
Location: Oshawa
(43.9000°N, 78.8670°W)
Time: 02:12:49
(UTC-04:00)
Language:

Explorer 11/Cluster Stage 4 - Orbit

View from above orbital plane
View from above orbital plane
View from above satellite
View from above satellite

Ground track
Ground track

The orbit data is extracted from the following two-line orbital elements,

1 00107U 61013A   14113.48256324  .00005079  00000-0  69324-3 0   352
2 00107 028.7867 249.4458 0564308 101.2160 333.8762 14.04603948648875
Epoch (UTC): 23 April 2014 11:34:53
Eccentricity: 0.0564308
inclination: 28.7867°
perigee height: 468 km
apogee height: 1287 km
right ascension of ascending node: 249.4458°
argument of perigee: 101.2160°
revolutions per day: 14.04603948
mean anomaly at epoch: 333.8762°
orbit number at epoch: 64887

The dashed part of the orbit path shows where the satellite is in the earth's shadow,  

DLR